Voltar ao catálogo

HULIANWANG DIGUI-32

AtivoComunicaçõesPO
NORAD 64285·PAYLOAD·🇨🇳 China

Lançado Jun 5, 2025 de Taiyuan Satellite Launch Center

Loading…

Próximas Passagens (próximas 24 horas)

TLE

AtualizadoSource: Space-Track

Época: Sep 14, 2026, 14:27 UTC

1 64285U 25121C   26257.60211020  .00000049  00000-0  80580-4 0  9998
2 64285  86.5010 343.2148 0001656 102.6161 257.5159 13.24412358 61999

Acompanhe HULIANWANG DIGUI-32 em tempo real com AllMySat

Download on the App Store